When you browse on this site, cookies collect data to enhance your experience and personalize the content and advertising you see.
Visit our Privacy Policy to learn more. By continuing to use the site, you agree to this use of cookies and data.
  • En España
  • Lista de países
  • Para 7 días
  • Temperatura del agua
  • El tiempo en el mapa
  • Informadores
  • user-avatar
    Iniciar sesión

    Tiempo cada hora Bindura

    Hoy, 29 Febrero, Sábado

    Tiempo Temperatura Precipitaciones Viento Presión Humedad
    00:00 +21°C° 0.1 mm 1 mps 668 mmHg 93%
    01:00 +21°C° 0.1 mm 1 mps 668 mmHg 93%
    02:00 +21°C° 0 mm 1 mps 669 mmHg 93%
    03:00 +21°C° 0.4 mm 1 mps 668 mmHg 93%
    04:00 +21°C° 0.4 mm 1 mps 668 mmHg 92%
    05:00 +20°C° 0.4 mm 1 mps 668 mmHg 92%
    06:00 +20°C° 0 mm 2 mps 669 mmHg 90%
    07:00 +20°C° 0 mm 2 mps 670 mmHg 87%
    08:00 +21°C° 0 mm 3 mps 670 mmHg 85%
    09:00 +24°C° 0 mm 3 mps 670 mmHg 78%
    10:00 +25°C° 0 mm 2 mps 671 mmHg 71%
    11:00 +27°C° 0 mm 2 mps 671 mmHg 64%
    12:00 +27°C° 0.3 mm 2 mps 670 mmHg 64%
    13:00 +28°C° 0.3 mm 2 mps 670 mmHg 64%
    14:00 +28°C° 0.3 mm 2 mps 669 mmHg 63%
    15:00 +27°C° 0.4 mm 2 mps 668 mmHg 69%
    16:00 +26°C° 0.4 mm 2 mps 668 mmHg 74%
    17:00 +25°C° 0.4 mm 3 mps 667 mmHg 79%
    18:00 +24°C° 0.2 mm 3 mps 668 mmHg 81%
    19:00 +21°C° 0.2 mm 3 mps 668 mmHg 82%
    20:00 +20°C° 0.2 mm 3 mps 669 mmHg 84%
    21:00 +19°C° 0 mm 2 mps 669 mmHg 85%
    22:00 +19°C° 0 mm 2 mps 669 mmHg 85%
    23:00 +19°C° 0 mm 2 mps 669 mmHg 85%

    Mañana, 1 Marzo, Domingo

    Tiempo Temperatura Precipitaciones Viento Presión Humedad
    00:00 +18°C° 0 mm 2 mps 669 mmHg 87%
    01:00 +18°C° 0 mm 2 mps 669 mmHg 88%
    02:00 +17°C° 0 mm 2 mps 668 mmHg 90%
    03:00 +17°C° 0 mm 2 mps 668 mmHg 89%
    04:00 +17°C° 0 mm 2 mps 668 mmHg 89%
    05:00 +16°C° 0 mm 2 mps 668 mmHg 89%
    06:00 +18°C° 0 mm 2 mps 668 mmHg 85%
    07:00 +19°C° 0 mm 2 mps 669 mmHg 81%
    08:00 +20°C° 0 mm 2 mps 670 mmHg 76%
    09:00 +23°C° 0 mm 2 mps 670 mmHg 71%
    10:00 +25°C° 0 mm 2 mps 670 mmHg 65%
    11:00 +26°C° 0 mm 2 mps 671 mmHg 60%
    12:00 +27°C° 0.1 mm 2 mps 670 mmHg 61%
    13:00 +27°C° 0.1 mm 1 mps 670 mmHg 61%
    14:00 +27°C° 0.1 mm 1 mps 669 mmHg 62%
    15:00 +27°C° 0.2 mm 1 mps 669 mmHg 66%
    16:00 +26°C° 0.2 mm 1 mps 668 mmHg 70%
    17:00 +26°C° 0.2 mm 1 mps 668 mmHg 74%
    18:00 +24°C° 0.6 mm 2 mps 668 mmHg 80%
    19:00 +21°C° 0.6 mm 2 mps 668 mmHg 86%
    20:00 +19°C° 0.6 mm 2 mps 668 mmHg 92%
    21:00 +20°C° 0.7 mm 1 mps 668 mmHg 92%
    22:00 +20°C° 0.7 mm 1 mps 669 mmHg 92%
    23:00 +17°C° 0.7 mm 0 mps 669 mmHg 92%

    Pasado mañana, 2 Marzo, Lunes

    Tiempo Temperatura Precipitaciones Viento Presión Humedad
    00:00 +17°C° 0 mm 0 mps 669 mmHg 92%
    01:00 +17°C° 0 mm 0 mps 669 mmHg 91%
    02:00 +17°C° 0 mm 0 mps 668 mmHg 91%
    03:00 +18°C° 0 mm 1 mps 668 mmHg 92%
    04:00 +18°C° 0 mm 1 mps 668 mmHg 94%
    05:00 +16°C° 0 mm 1 mps 668 mmHg 95%
    06:00 +16°C° 0 mm 0 mps 668 mmHg 92%
    07:00 +17°C° 0 mm 0 mps 669 mmHg 89%
    08:00 +18°C° 0 mm 0 mps 670 mmHg 86%
    09:00 +19°C° 0 mm 0 mps 670 mmHg 81%
    10:00 +23°C° 0 mm 1 mps 670 mmHg 76%
    11:00 +24°C° 0 mm 1 mps 670 mmHg 72%
    12:00 +24°C° 0.1 mm 2 mps 670 mmHg 71%
    13:00 +25°C° 0.1 mm 2 mps 669 mmHg 71%
    14:00 +25°C° 0.1 mm 2 mps 669 mmHg 70%
    15:00 +25°C° 0.4 mm 2 mps 668 mmHg 75%
    16:00 +24°C° 0.4 mm 2 mps 668 mmHg 79%
    17:00 +23°C° 0.4 mm 2 mps 667 mmHg 83%
    18:00 +21°C° 0.3 mm 2 mps 667 mmHg 87%
    19:00 +21°C° 0.3 mm 1 mps 668 mmHg 91%
    20:00 +20°C° 0.3 mm 1 mps 668 mmHg 95%
    21:00 +20°C° 0 mm 1 mps 668 mmHg 95%
    22:00 +20°C° 0 mm 1 mps 669 mmHg 95%
    23:00 +18°C° 0 mm 0 mps 669 mmHg 94%

    3 Marzo, Martes

    Tiempo Temperatura Precipitaciones Viento Presión Humedad
    00:00 +18°C° 0 mm 0 mps 669 mmHg 94%
    01:00 +18°C° 0 mm 0 mps 669 mmHg 94%
    02:00 +18°C° 0 mm 0 mps 669 mmHg 94%
    03:00 +17°C° 0 mm 0 mps 669 mmHg 95%
    04:00 +17°C° 0 mm 0 mps 669 mmHg 96%
    05:00 +16°C° 0 mm 0 mps 669 mmHg 97%
    06:00 +17°C° 0 mm 0 mps 669 mmHg 95%
    07:00 +20°C° 0 mm 1 mps 669 mmHg 93%
    08:00 +20°C° 0 mm 1 mps 670 mmHg 92%
    09:00 +22°C° 0 mm 1 mps 670 mmHg 82%
    10:00 +25°C° 0 mm 1 mps 671 mmHg 73%
    11:00 +27°C° 0 mm 1 mps 671 mmHg 64%
    12:00 +27°C° 0 mm 1 mps 671 mmHg 61%
    13:00 +27°C° 0 mm 1 mps 670 mmHg 59%
    14:00 +28°C° 0 mm 1 mps 670 mmHg 56%
    15:00 +27°C° 0.3 mm 2 mps 669 mmHg 63%
    16:00 +26°C° 0.3 mm 2 mps 669 mmHg 70%
    17:00 +25°C° 0.3 mm 2 mps 668 mmHg 78%
    18:00 +23°C° 0.7 mm 2 mps 669 mmHg 83%
    19:00 +20°C° 0.7 mm 2 mps 669 mmHg 89%
    20:00 +19°C° 0.7 mm 2 mps 669 mmHg 94%
    21:00 +19°C° 0.3 mm 1 mps 670 mmHg 95%
    22:00 +19°C° 0.3 mm 1 mps 670 mmHg 96%
    23:00 +19°C° 0.3 mm 1 mps 670 mmHg 97%

    4 Marzo, Miércoles

    Tiempo Temperatura Precipitaciones Viento Presión Humedad
    00:00 +19°C° 0 mm 1 mps 670 mmHg 98%
    01:00 +17°C° 0 mm 0 mps 669 mmHg 98%
    02:00 +16°C° 0 mm 0 mps 669 mmHg 98%
    03:00 +16°C° 0 mm 0 mps 669 mmHg 98%
    04:00 +16°C° 0 mm 0 mps 669 mmHg 98%
    05:00 +16°C° 0 mm 0 mps 669 mmHg 98%
    06:00 +17°C° 0 mm 0 mps 670 mmHg 95%
    07:00 +18°C° 0 mm 0 mps 671 mmHg 93%
    08:00 +21°C° 0 mm 1 mps 671 mmHg 90%
    09:00 +22°C° 0.1 mm 1 mps 671 mmHg 82%
    10:00 +24°C° 0.1 mm 1 mps 672 mmHg 74%
    11:00 +25°C° 0.1 mm 1 mps 672 mmHg 65%
    12:00 +25°C° 0.5 mm 2 mps 671 mmHg 66%
    13:00 +26°C° 0.5 mm 2 mps 671 mmHg 66%
    14:00 +26°C° 0.5 mm 2 mps 670 mmHg 67%
    15:00 +25°C° 0.9 mm 2 mps 669 mmHg 73%
    16:00 +24°C° 0.9 mm 2 mps 669 mmHg 79%
    17:00 +23°C° 0.9 mm 2 mps 669 mmHg 85%
    18:00 +22°C° 0.1 mm 1 mps 669 mmHg 87%
    19:00 +21°C° 0.1 mm 1 mps 669 mmHg 89%
    20:00 +19°C° 0.1 mm 1 mps 669 mmHg 91%
    21:00 +19°C° 0 mm 1 mps 670 mmHg 91%
    22:00 +17°C° 0 mm 0 mps 670 mmHg 91%
    23:00 +17°C° 0 mm 0 mps 670 mmHg 91%

    5 Marzo, Jueves

    Tiempo Temperatura Precipitaciones Viento Presión Humedad
    00:00 +16°C° 0 mm 0 mps 670 mmHg 91%
    01:00 +16°C° 0 mm 1 mps 669 mmHg 92%
    02:00 +15°C° 0 mm 1 mps 669 mmHg 92%
    03:00 +15°C° 0 mm 1 mps 669 mmHg 92%
    04:00 +15°C° 0 mm 1 mps 669 mmHg 92%
    05:00 +14°C° 0 mm 1 mps 669 mmHg 92%
    06:00 +15°C° 0 mm 1 mps 669 mmHg 89%
    07:00 +18°C° 0 mm 1 mps 670 mmHg 85%
    08:00 +19°C° 0 mm 1 mps 670 mmHg 81%
    09:00 +22°C° 0 mm 1 mps 671 mmHg 72%
    10:00 +25°C° 0 mm 1 mps 671 mmHg 63%
    11:00 +27°C° 0 mm 1 mps 671 mmHg 54%
    12:00 +28°C° 0 mm 1 mps 671 mmHg 52%
    13:00 +29°C° 0 mm 1 mps 670 mmHg 50%
    14:00 +29°C° 0 mm 1 mps 670 mmHg 48%
    15:00 +28°C° 0 mm 1 mps 669 mmHg 54%
    16:00 +27°C° 0 mm 1 mps 669 mmHg 60%
    17:00 +26°C° 0 mm 1 mps 668 mmHg 66%
    18:00 +24°C° 0 mm 1 mps 668 mmHg 72%
    19:00 +22°C° 0 mm 1 mps 668 mmHg 78%
    20:00 +20°C° 0 mm 1 mps 668 mmHg 83%
    21:00 +19°C° 0 mm 1 mps 668 mmHg 84%
    22:00 +19°C° 0 mm 1 mps 669 mmHg 84%
    23:00 +16°C° 0 mm 0 mps 669 mmHg 84%
    Mostrar más